Regional Weather Roundup
Issued by NWS

Home | Current Version | Previous Version | Text Only | Print | Product List | Glossary Off
Versions: 1 2 3 4 5 6 7 8 9 10 11 12 13 14 15 16 17 18 19 20 21 22 23 24 25 26 27 28 29 30 31 32 33 34 35 36 37 38 39 40 41 42 43 44 45 46 47 48 49 50

360
ASUS44 KLIX 181701
RWRLA
LOUISIANA WEATHER ROUNDUP
NATIONAL WEATHER SERVICE NEW ORLEANS LA
1100 AM CST THU DEC 18 2014

NOTE: "FAIR" INDICATES FEW OR NO CLOUDS BELOW 12,000 FEET WITH NO
      SIGNIFICANT WEATHER AND/OR OBSTRUCTIONS TO VISIBILITY.
      SKY/WX - SKY CONDITION AND SIGNIFICANT WEATHER.
      TMP - AIR TEMPERATURE.    DP   - DEWPOINT TEMPERATURE.
      RH  - RELATIVE HUMIDITY.  PRES - PRESSURE.
      HX  - HEAT INDEX.         WCI  - WIND CHILL INDEX.

*  THESE STATIONS ARE NOT NWS OR FAA STATIONS AND ARE NOT UNDER
   NWS QUALITY CONTROL.

LAZ040-048-061>063-065-066-069-181800-
SOUTHEAST LOUISIANA

CITY           SKY/WX    TMP DP  RH WIND       PRES   REMARKS
N.O. AUDUBON   NOT AVBL
N.O. INTL ARPT PTSUNNY   66  52  60 SE8       30.17F
N.O. LAKEFRONT MOSUNNY   63  51  65 E14       30.19F
N.O. DOWNTOWN* FAIR      64  48  55 NE3       30.18F
SLIDELL        SUNNY     62  45  53 SE8       30.19F
BATON ROUGE    CLOUDY    61  49  64 E6        30.16F
BOOTHVILLE     NOT AVBL
BELLE CHASSE   NOT AVBL
BOGALUSA*        N/A     60  44  55 SE6       30.20F
GALLIANO*      NOT AVBL
NEW ROADS*     NOT AVBL
GONZALES*      NOT AVBL
HAMMOND*       NOT AVBL
HOUMA*         SUNNY     68  55  64 E8        30.17F
PORT FOURCHON* SUNNY     66  57  72 E14       30.20S

$$

LAZ041-044-053-054-181800-
SOUTHWEST LOUISIANA

CITY           SKY/WX    TMP DP  RH WIND       PRES   REMARKS
LAKE CHARLES   CLOUDY    64  58  80 SE6       30.12F
LAFAYETTE      CLOUDY    63  52  67 VRB3      30.15F
PATTERSON      PTSUNNY   64  54  68 SE8       30.16F
SALT POINT     NOT AVBL
NEW IBERIA     CLOUDY    64  53  67 SE7       30.15F
CHENAULT AIRPK CLOUDY    63  55  77 SE5       30.13S

$$

LAZ027-028-181800-
CENTRAL LOUISIANA

CITY           SKY/WX    TMP DP  RH WIND       PRES   REMARKS
FORT POLK      CLOUDY    50  49  96 NE6       30.15S
ALEXANDRIA INT LGT RAIN  48  47  96 NE6       30.16F FOG
ALEXANDRIA     LGT RAIN  50  47  89 E3        30.18F

$$

LAZ001-002-181800-
NORTHWEST LOUISIANA

CITY           SKY/WX    TMP DP  RH WIND       PRES   REMARKS
SHREVEPORT     CLOUDY    48  44  86 SE6       30.18S
BARKSDALE AFB  NOT AVBL
DTN SHREVEPORT CLOUDY    47  43  86 E6        30.18F

$$

LAZ014-016-181800-
NORTHEAST LOUISIANA

CITY           SKY/WX    TMP DP  RH WIND       PRES   REMARKS
MONROE         CLOUDY    48  45  89 E6        30.21F
TALLULAH       CLOUDY    49  43  80 E7        30.21F

$$




USA.gov is the U.S. government's official web portal to all federal, state and local government web resources and services.